Weather past 2 weeks in Bantam, Cocos Islands

Now
84 °F

Sunny.


Feels Like: 94 °F
Forecast: 84 / 87 °F
Wind: 13 mph from Northeast

Location: Cocos Island Airport


UV Index: 5 (Moderate)

Visibility: N/A


Pressure: 29.74 "Hg

Humidity: 79%

Dew point: 77 °F

Location of BantamLocation

Historic Weather in Bantam

°F

Bantam temperature yesterday

Maximum temperature yesterday: 86 °F (at 9:30 AM)
Minimum temperature yesterday: 79 °F (at 2:00 PM)
Average temperature yesterday: 82 °F

Past Weeks' High & Low Weather Summary

 TemperatureHumidityPressure
High90 °F (Apr 13, 11:30 AM)100% (Apr 16, 2:00 PM)29.95 "Hg (Apr 16, 2:00 PM)
Low77 °F (Apr 7, 2:00 AM)59% (Apr 9, 12:30 PM)29.71 "Hg (Apr 17, 4:26 AM)
Average83 °F78%29.83 "Hg
* Reported Apr 4 3:30 PM — Apr 19 3:30 PM, Bantam, Weather by CustomWeather, © 2014

Note: Actual official high and low records may vary slightly from our data, if they occured in-between our weather recording intervals... More about our weather records

Advertising

Historic Weather Conditions — Data for Previous 24 hours

 ConditionsComfort  
Time TempWeatherWind HumidityBarometerVisibility
3:30 PM
Apr 19
84 °FSunny.13 mph79%29.74 "HgN/A
3:00 PM84 °FSunny.12 mph79%29.74 "HgN/A
2:30 PM84 °FSunny.10 mph79%29.74 "HgN/A
2:00 PM84 °FSunny.9 mph79%29.77 "HgN/A
1:30 PM82 °FWarm.10 mph84%29.77 "HgN/A
1:00 PM82 °FSprinkles. Scattered clouds.10 mph84%29.80 "HgN/A
12:30 PM82 °FScattered clouds.8 mph84%29.80 "HgN/A
12:00 PM79 °FLots of rain. Cloudy.7 mph94%29.83 "Hg3 mi
11:30 AM79 °FSprinkles. Broken clouds.14 mph89%29.83 "HgN/A
11:00 AM81 °FLots of rain. Broken clouds.7 mph89%29.83 "Hg2 mi
10:30 AM86 °FScattered clouds.14 mph75%29.83 "HgN/A
10:00 AM84 °FScattered clouds.15 mph79%29.83 "HgN/A
9:30 AM86 °FBroken clouds.13 mph75%29.83 "HgN/A
9:00 AM84 °FBroken clouds.15 mph79%29.83 "HgN/A
8:30 AM82 °FScattered showers. Broken clouds.14 mph84%29.83 "HgN/A
8:00 AM82 °FSunny.14 mph84%29.80 "HgN/A
7:30 AM82 °FSunny.15 mph84%29.80 "HgN/A
7:00 AM82 °FClear.14 mph84%29.80 "HgN/A
6:30 AM82 °FClear.15 mph84%29.77 "HgN/A
6:00 AM82 °FClear.14 mph79%29.77 "HgN/A
5:30 AM82 °FWarm.14 mph84%29.77 "HgN/A
5:00 AM81 °FClear.14 mph84%29.77 "HgN/A
4:30 AM81 °FPassing clouds.14 mph89%29.80 "HgN/A
4:00 AM81 °FPassing clouds.14 mph89%29.80 "HgN/A
3:30 AM81 °FClear.13 mph84%29.80 "HgN/A
3:00 AM79 °FClear.13 mph89%29.80 "HgN/A
2:30 AM79 °FSprinkles. Overcast.10 mph89%29.80 "HgN/A
2:00 AM79 °FSprinkles. Passing clouds.10 mph94%29.80 "HgN/A
1:30 AM79 °FSprinkles. Overcast.7 mph84%29.83 "HgN/A
1:00 AM77 °FPassing clouds.10 mph89%29.83 "HgN/A
12:30 AM79 °FPassing clouds.15 mph84%29.86 "HgN/A
12:00 AM82 °FClear.13 mph84%29.86 "HgN/A
11:30 PM
Apr 18
82 °FClear.15 mph84%29.86 "HgN/A
11:00 PM82 °FPassing clouds.16 mph84%29.86 "HgN/A
10:30 PM82 °FClear.17 mph84%29.86 "HgN/A
10:00 PM82 °FClear.15 mph84%29.86 "HgN/A
9:30 PM82 °FWarm.17 mph84%29.86 "HgN/A
9:00 PM82 °FClear.20 mph79%29.83 "HgN/A
8:30 PM82 °FClear.20 mph84%29.83 "HgN/A
7:30 PM82 °FClear.17 mph84%29.80 "HgN/A
7:00 PM81 °FPassing clouds.20 mph89%29.80 "HgN/A
6:30 PM81 °FScattered clouds.20 mph94%29.80 "HgN/A
6:00 PM81 °FSunny.16 mph89%29.80 "HgN/A
5:30 PM79 °FWarm.8 mph94%29.80 "HgN/A
4:30 PM81 °FSprinkles. Cloudy.14 mph89%29.80 "Hg4 mi
Weather by CustomWeather, © 2014

See weather overview